Weather History for Boerne Stage Field, TX

Change the Weather History Date:

Sunday, August 18, 2013

  Actual Average (KSAT) Record (KSAT)
Temperature  
Mean Temperature 78 °F 86 °F  
Max Temperature 95 °F 96 °F 105 °F (1909)
Min Temperature 62 °F 75 °F 64 °F (1992)
Degree Days  
Heating Degree Days 0 0  
Month to date heating degree days 0  
Since 1 June heating degree days 0  
Since 1 July heating degree days 0  
Cooling Degree Days 14 21  
Month to date cooling degree days 378  
Year to date cooling degree days 2138  
Since 1 June cooling degree days 1509  
Growing Degree Days 28 (Base 50)    
Moisture  
Dew Point 54 °F    
Average Humidity 45    
Maximum Humidity 72    
Minimum Humidity 22    
Precipitation  
Precipitation 0.00 in 0.06 in 3.86 in (1932)
Month to date precipitation 0.94  
Year to date precipitation 19.79  
Snow  
Snow 0.00 in - - ()
Month to date snowfall  
Since 1 June snowfall  
Since 1 July snowfall  
Snow Depth -    
Sea Level Pressure  
Sea Level Pressure 30.05 in    
Wind  
Wind Speed 2 mph (ESE)    
Max Wind Speed 10 mph    
Max Gust Speed 17 mph    
Visibility 10 miles    
Events      
T = Trace of Precipitation, MM = Missing Value Source: NWS Daily Summary

Daily Weather History Graph

Daily Weather History Graph

Search for Another Location

Airport:

Trip Planner

Search our weather history database for the weather conditions in past years. The results will help you decide how hot, cold, wet, or windy it might be!

Date:

Astronomy

Aug. 18, 2013 Rise Set
Actual Time 7:04 AM CDT 8:12 PM CDT
Civil Twilight 6:39 AM CDT 8:37 PM CDT
Nautical Twilight 6:09 AM CDT 9:06 PM CDT
Astronomical Twilight 5:39 AM CDT 9:36 PM CDT
Moon 6:15 PM CDT (8/18) 4:21 AM CDT (8/18)
Length of Visible Light 13h 57m
Length of Day
13h 07m
Waxing Gibbous, 92% of the Moon is Illuminated
Aug 18
Waxing Gibbous
Aug 20
Full
Aug 28
Last Quarter
Sep 5
New
Sep 12
First Quarter

Hourly Weather History & Observations

Time (CDT) Temp. Heat Index Dew Point Humidity Pressure Visibility Wind Dir Wind Speed Gust Speed Precip Events Conditions
12:15 AM 69.8 °F - 53.6 °F 56% 30.05 in 10.0 mi Calm Calm - N/A   Clear
12:35 AM 69.8 °F - 53.6 °F 56% 30.06 in 10.0 mi Calm Calm - N/A   Clear
12:55 AM 68.0 °F - 53.6 °F 60% 30.06 in 10.0 mi Calm Calm - N/A   Clear
1:15 AM 68.0 °F - 53.6 °F 60% 30.06 in 10.0 mi Calm Calm - N/A   Clear
1:35 AM 68.0 °F - 53.6 °F 60% 30.06 in 10.0 mi Calm Calm - N/A   Clear
1:55 AM 68.0 °F - 53.6 °F 60% 30.06 in 10.0 mi Calm Calm - N/A   Clear
2:15 AM 66.2 °F - 53.6 °F 64% 30.06 in 10.0 mi Calm Calm - N/A   Clear
2:35 AM 64.4 °F - 53.6 °F 68% 30.06 in 10.0 mi Calm Calm - N/A   Clear
2:55 AM 64.4 °F - 53.6 °F 68% 30.05 in 10.0 mi Calm Calm - N/A   Clear
3:15 AM 64.4 °F - 53.6 °F 68% 30.05 in 10.0 mi Calm Calm - N/A   Clear
3:35 AM 64.4 °F - 53.6 °F 68% 30.04 in 10.0 mi Calm Calm - N/A   Clear
3:55 AM 64.4 °F - 53.6 °F 68% 30.04 in 10.0 mi Calm Calm - N/A   Clear
4:15 AM 62.6 °F - 53.6 °F 72% 30.04 in 10.0 mi Calm Calm - N/A   Clear
4:35 AM 62.6 °F - 53.6 °F 72% 30.04 in 10.0 mi Calm Calm - N/A   Clear
4:55 AM 62.6 °F - 53.6 °F 72% 30.04 in 10.0 mi Calm Calm - N/A   Clear
5:15 AM 64.4 °F - 53.6 °F 68% 30.04 in 10.0 mi Calm Calm - N/A   Clear
5:35 AM 62.6 °F - 53.6 °F 72% 30.04 in 10.0 mi Calm Calm - N/A   Clear
5:55 AM 64.4 °F - 53.6 °F 68% 30.05 in 10.0 mi Calm Calm - N/A   Clear
6:15 AM 62.6 °F - 53.6 °F 72% 30.05 in 10.0 mi Calm Calm - N/A   Clear
6:35 AM 62.6 °F - 53.6 °F 72% 30.05 in 10.0 mi Calm Calm - N/A   Clear
6:55 AM 62.6 °F - 53.6 °F 72% 30.05 in 10.0 mi Calm Calm - N/A   Clear
7:15 AM 62.6 °F - 53.6 °F 72% 30.06 in 10.0 mi Calm Calm - N/A   Clear
7:35 AM 62.6 °F - 53.6 °F 72% 30.06 in 10.0 mi Calm Calm - N/A   Clear
7:55 AM 64.4 °F - 53.6 °F 68% 30.07 in 10.0 mi Calm Calm - N/A   Clear
8:15 AM 69.8 °F - 53.6 °F 56% 30.07 in 10.0 mi Calm Calm - N/A   Clear
8:35 AM 71.6 °F - 55.4 °F 57% 30.08 in 10.0 mi Calm Calm - N/A   Clear
8:55 AM 75.2 °F - 53.6 °F 47% 30.08 in 10.0 mi Calm Calm - N/A   Clear
9:15 AM 78.8 °F - 55.4 °F 44% 30.09 in 10.0 mi SSE 3.5 mph - N/A   Clear
9:35 AM 80.6 °F 80.8 °F 57.2 °F 45% 30.10 in 10.0 mi Calm Calm - N/A   Clear
9:55 AM 80.6 °F 81.1 °F 59.0 °F 48% 30.10 in 10.0 mi SW 4.6 mph - N/A   Clear
10:15 AM 82.4 °F 82.5 °F 59.0 °F 45% 30.10 in 10.0 mi South 3.5 mph - N/A   Clear
10:35 AM 82.4 °F 82.5 °F 59.0 °F 45% 30.10 in 10.0 mi NW 3.5 mph - N/A   Clear
10:55 AM 84.2 °F 83.8 °F 59.0 °F 42% 30.10 in 10.0 mi WSW 4.6 mph - N/A   Clear
11:15 AM 84.2 °F 83.5 °F 57.2 °F 40% 30.10 in 10.0 mi WSW 3.5 mph - N/A   Scattered Clouds
11:35 AM 86.0 °F 84.9 °F 57.2 °F 37% 30.10 in 10.0 mi ESE 3.5 mph - N/A   Clear
11:55 AM 86.0 °F 84.5 °F 55.4 °F 35% 30.10 in 10.0 mi NNW 3.5 mph - N/A   Clear
12:15 PM 87.8 °F 86.1 °F 55.4 °F 33% 30.09 in 10.0 mi East 4.6 mph - N/A   Scattered Clouds
12:35 PM 89.6 °F 87.3 °F 53.6 °F 29% 30.09 in 10.0 mi North 4.6 mph - N/A   Clear
12:55 PM 89.6 °F 87.3 °F 53.6 °F 29% 30.08 in 10.0 mi NE 6.9 mph - N/A   Clear
1:15 PM 91.4 °F - 51.8 °F 26% 30.08 in 10.0 mi South 4.6 mph - N/A   Clear
1:35 PM 91.4 °F 89.1 °F 53.6 °F 28% 30.07 in 10.0 mi ESE 8.1 mph - N/A   Scattered Clouds
1:55 PM 93.2 °F 90.8 °F 53.6 °F 26% 30.07 in 10.0 mi ESE 4.6 mph - N/A   Clear
2:15 PM 93.2 °F - 51.8 °F 24% 30.06 in 10.0 mi ENE 6.9 mph - N/A   Scattered Clouds
2:35 PM 93.2 °F - 51.8 °F 24% 30.06 in 10.0 mi NE 6.9 mph 16.1 mph N/A   Scattered Clouds
2:55 PM 95.0 °F - 50.0 °F 22% 30.05 in 10.0 mi North 3.5 mph - N/A   Mostly Cloudy
3:15 PM 95.0 °F - 51.8 °F 23% 30.05 in 10.0 mi ENE 10.4 mph - N/A   Mostly Cloudy
3:35 PM 95.0 °F - 51.8 °F 23% 30.05 in 10.0 mi ESE 6.9 mph - N/A   Mostly Cloudy
3:55 PM 95.0 °F - 51.8 °F 23% 30.04 in 10.0 mi ESE 9.2 mph 17.3 mph N/A   Mostly Cloudy
4:15 PM 95.0 °F - 51.8 °F 23% 30.03 in 10.0 mi ENE 8.1 mph - N/A   Scattered Clouds
4:35 PM 95.0 °F - 51.8 °F 23% 30.03 in 10.0 mi SE 6.9 mph - N/A   Mostly Cloudy
4:55 PM 93.2 °F - 51.8 °F 24% 30.03 in 10.0 mi ENE 6.9 mph - N/A   Mostly Cloudy
5:15 PM 91.4 °F - 51.8 °F 26% 30.02 in 10.0 mi ESE 8.1 mph - N/A   Mostly Cloudy
5:35 PM 91.4 °F - 51.8 °F 26% 30.02 in 10.0 mi Calm Calm - N/A   Mostly Cloudy
5:55 PM 91.4 °F - 51.8 °F 26% 30.01 in 10.0 mi East 6.9 mph - N/A   Mostly Cloudy
6:15 PM 89.6 °F - 51.8 °F 27% 30.02 in 10.0 mi SSE 5.8 mph - N/A   Scattered Clouds
6:35 PM 91.4 °F - 51.8 °F 26% 30.01 in 10.0 mi ESE 6.9 mph - N/A   Scattered Clouds
6:55 PM 91.4 °F - 51.8 °F 26% 30.01 in 10.0 mi SE 8.1 mph - N/A   Mostly Cloudy
7:15 PM 89.6 °F - 51.8 °F 27% 30.02 in 10.0 mi East 6.9 mph - N/A   Mostly Cloudy
7:35 PM 89.6 °F - 51.8 °F 27% 30.02 in 10.0 mi ESE 5.8 mph - N/A   Scattered Clouds
7:55 PM 87.8 °F - 51.8 °F 29% 30.02 in 10.0 mi ESE 8.1 mph - N/A   Overcast
8:15 PM 87.8 °F - 51.8 °F 29% 30.02 in 10.0 mi ESE 4.6 mph - N/A   Overcast
8:35 PM 86.0 °F - 51.8 °F 31% 30.02 in 10.0 mi ESE 3.5 mph - N/A   Scattered Clouds
8:55 PM 82.4 °F 81.4 °F 53.6 °F 37% 30.02 in 10.0 mi SE 3.5 mph - N/A   Clear
9:15 PM 82.4 °F 81.4 °F 53.6 °F 37% 30.03 in 10.0 mi ESE 3.5 mph - N/A   Clear
9:35 PM 82.4 °F 81.4 °F 53.6 °F 37% 30.03 in 10.0 mi ESE 3.5 mph - N/A   Clear
9:55 PM 80.6 °F 80.3 °F 53.6 °F 39% 30.03 in 10.0 mi Calm Calm - N/A   Clear
10:15 PM 77.0 °F - 53.6 °F 44% 30.04 in 10.0 mi Calm Calm - N/A   Clear
10:35 PM 77.0 °F - 53.6 °F 44% 30.05 in 10.0 mi Calm Calm - N/A   Clear
10:55 PM 73.4 °F - 53.6 °F 50% 30.05 in 10.0 mi Calm Calm - N/A   Clear
11:15 PM 71.6 °F - 55.4 °F 57% 30.05 in 10.0 mi Calm Calm - N/A   Clear
11:35 PM 73.4 °F - 55.4 °F 53% 30.06 in 10.0 mi SE 3.5 mph - N/A   Clear
11:55 PM 75.2 °F - 53.6 °F 47% 30.06 in 10.0 mi Calm Calm - N/A   Clear